Theta_e
313 318 318 314 312 311 312 312 313 311 310 310 310 310 303 296 297 298 297 296 294 294 292 289 288 289 289 291 292 293 293 291 291 293 294 296 295 294 297 299 300 302 304 305
313 318 313 312 311 311 311 312 312 310 310 310 310 310 305 297 297 298 298 296 295 294 291 288 287 288 289 290 292 294 292 290 291 293 294 295 293 292 292 294 296 298 300 301
314 313 313 312 313 313 312 311 309 311 311 310 309 309 308 299 297 297 297 296 295 294 292 289 287 286 287 288 290 291 295 292 290 293 293 293 291 290 289 291 292 294 296 297
316 314 314 314 314 312 315 310 310 310 312 313 308 315 307 305 299 296 297 296 295 293 292 289 287 286 285 286 288 289 291 291 290 290 291 290 290 288 285 287 289 290 293 293
314 313 312 315 315 311 315 311 311 310 311 309 309 312 310 302 304 301 297 297 295 293 291 288 287 285 283 283 285 287 288 288 286 288 290 291 290 288 284 285 287 287 289 291
313 311 312 313 311 313 310 312 310 308 308 315 311 312 312 306 307 305 303 297 296 293 289 287 286 283 281 281 282 283 284 286 286 288 287 289 289 285 283 283 284 284 285 286
312 312 311 309 311 310 312 314 318 316 315 314 309 311 312 307 305 307 307 301 297 293 288 286 283 281 279 279 279 280 282 283 284 285 286 285 285 283 282 281 281 282 282 282
314 315 311 309 312 311 312 314 317 317 315 313 308 313 311 306 305 304 300 301 295 291 287 285 281 280 279 279 279 279 280 281 282 281 281 281 281 281 280 280 279 280 280 280
318 316 310 310 310 311 313 315 313 315 311 311 310 307 304 299 299 298 298 296 293 288 286 282 279 279 279 278 278 278 278 278 279 280 280 280 280 280 279 279 278 278 278 279
314 317 312 311 311 310 311 311 316 317 319 320 312 306 309 302 302 298 295 293 288 286 282 279 279 278 278 277 277 277 277 277 277 278 278 278 278 278 277 277 277 277 277 277
309 312 308 312 312 314 313 313 314 316 317 318 317 311 303 305 303 300 296 289 284 280 278 278 278 277 276 276 276 275 276 276 276 276 277 276 276 276 276 276 276 275 276 276
308 307 307 306 306 310 311 313 314 316 316 315 313 311 291 291 294 297 291 285 280 279 277 275 276 276 276 275 275 275 274 275 275 275 275 275 275 275 275 274 274 274 274 274
306 308 305 302 307 310 312 310 309 309 308 312 317 311 292 291 289 287 285 281 280 277 275 274 274 275 275 274 274 274 274 275 275 274 274 273 273 273 273 273 273 273 273 273
304 301 304 305 304 302 303 304 306 307 306 308 308 308 306 299 290 284 283 281 278 276 276 274 273 272 272 273 273 273 273 274 273 273 273 272 272 272 272 272 272 272 272 273
300 300 299 301 302 302 301 302 301 299 301 304 303 303 304 303 295 283 281 279 278 276 275 274 272 270 270 271 271 272 272 272 272 272 271 271 271 271 271 271 271 271 272 272
293 297 298 296 297 298 299 295 294 296 296 302 303 302 303 293 286 282 280 279 278 276 275 274 272 269 269 270 270 271 271 271 271 271 270 270 270 270 270 271 271 271 271 271
297 295 294 293 291 290 285 291 292 293 294 298 300 299 288 289 286 284 281 280 278 277 275 273 271 270 269 269 270 270 270 270 270 270 269 269 270 270 270 271 271 271 271 271
287 289 286 291 285 290 288 282 286 291 289 285 288 290 291 289 282 280 279 279 278 276 274 272 271 270 269 269 269 270 270 269 269 269 269 269 270 270 270 271 271 270 270 270
290 284 280 281 284 283 287 284 285 287 288 276 278 281 281 282 282 280 280 279 277 275 273 272 270 269 269 269 269 269 268 269 269 269 269 270 270 270 270 270 270 270 270 270
288 287 286 279 283 281 282 274 267 272 284 272 274 276 281 283 289 280 276 275 273 272 271 270 270 269 269 268 269 269 269 269 269 269 270 270 270 270 270 270 270 270 270 270
286 286 288 288 289 286 272 268 268 288 285 271 272 274 278 281 278 275 274 273 272 272 271 270 270 269 269 269 269 269 269 270 270 270 270 270 270 270 270 269 269 269 269 269
287 286 280 282 290 290 271 273 285 275 265 266 269 275 275 274 274 274 273 272 272 271 272 270 269 269 269 269 270 270 270 270 270 270 269 269 269 269 269 269 268 268 268 269
282 284 286 286 287 275 272 273 268 268 270 267 268 271 274 274 273 272 272 271 272 270 270 270 269 269 270 270 271 270 270 270 269 269 269 269 269 268 268 268 268 268 269 269
275 267 275 280 276 273 264 263 263 263 265 264 269 271 273 272 272 272 271 271 270 270 270 270 270 270 270 270 270 269 269 269 269 268 268 268 268 267 267 268 268 269 269 269
274 272 271 272 273 266 264 261 262 263 267 270 271 272 272 272 272 271 271 271 270 270 270 270 270 270 269 269 269 269 269 269 268 268 268 268 268 267 267 267 268 269 270 270
270 276 277 279 268 267 266 260 262 266 268 271 272 272 272 272 271 271 271 270 270 270 270 269 269 268 268 268 267 268 268 268 268 268 268 267 267 267 267 268 269 270 270 270
Wind_Speed
4 7 12 8 6 4 7 4 5 2 7 5 9 8 8 10 10 10 11 11 10 11 11 12 12 13 13 13 15 15 12 11 14 15 16 16 15 16 17 16 16 15 15 12
3 14 10 9 7 6 6 7 7 3 5 6 3 12 4 11 9 14 14 13 14 11 11 16 15 16 14 13 14 14 15 12 14 15 13 12 17 14 17 16 14 15 14 15
5 4 9 7 5 7 4 8 5 5 3 2 4 7 5 6 6 10 12 11 12 17 16 15 21 20 19 16 15 15 16 11 11 14 14 19 19 18 15 15 14 13 13 12
6 5 8 5 9 8 13 9 8 7 5 6 8 8 7 6 8 10 14 15 18 17 13 13 19 20 21 20 15 14 18 16 15 16 19 18 17 18 13 16 16 14 13 13
7 6 6 10 13 9 10 8 10 6 7 2 6 4 4 3 8 11 17 20 18 16 15 15 21 20 16 16 18 16 15 16 15 16 19 15 17 18 19 18 17 16 15 14
6 3 6 11 7 13 5 3 3 2 4 12 12 10 17 10 11 8 14 20 20 17 16 16 22 23 20 16 15 16 15 15 14 14 15 16 20 22 21 19 19 18 17 16
3 11 5 5 4 5 7 6 6 5 6 11 11 10 31 5 10 16 17 18 21 18 17 17 19 24 22 18 15 15 15 16 15 15 15 17 21 23 22 20 20 20 19 18
5 6 14 9 19 10 14 17 7 8 9 10 9 10 11 10 13 13 4 4 14 17 16 17 21 24 24 23 23 20 19 20 19 20 21 22 23 24 22 20 20 21 20 19
4 7 2 6 16 15 9 11 23 10 9 3 5 7 7 3 6 3 6 9 15 15 16 17 21 24 23 22 20 23 23 22 22 23 22 21 22 23 24 23 21 22 20 19
2 6 2 5 2 8 19 3 5 7 8 9 6 6 7 5 11 9 9 12 12 13 15 15 20 23 23 23 23 22 23 24 23 23 23 23 23 24 24 23 22 20 20 19
3 3 3 2 5 6 5 14 8 3 4 5 3 5 3 14 15 14 11 11 13 13 14 14 19 24 24 24 24 24 25 24 24 23 23 24 25 25 25 23 22 21 21 19
2 2 5 9 7 6 5 5 5 6 8 5 14 12 5 8 8 5 12 13 12 13 13 12 21 25 25 24 24 25 24 25 24 23 24 25 25 25 26 24 23 21 21 19
2 2 3 6 0 2 1 2 1 3 3 4 7 4 3 6 9 9 9 14 15 16 15 14 19 22 24 24 24 25 26 26 25 25 25 26 26 26 26 25 23 21 20 19
3 3 7 8 7 1 10 4 2 2 4 7 8 8 12 6 2 6 6 9 13 16 16 14 13 18 22 23 26 28 27 27 27 27 27 27 26 26 25 24 22 21 19 18
2 5 5 10 10 9 11 13 14 6 9 9 13 15 18 7 8 9 11 13 13 14 16 15 14 17 22 25 27 30 29 28 28 29 28 28 26 25 24 23 21 20 18 18
1 4 2 6 9 10 15 8 8 12 13 14 17 19 15 1 8 10 14 16 15 12 12 15 15 20 22 25 27 31 31 29 29 29 28 26 26 24 23 21 20 19 18 17
3 3 2 10 3 5 6 8 15 8 9 7 12 10 3 3 4 11 14 15 16 17 14 12 13 22 24 26 32 32 33 30 29 29 28 26 25 24 22 21 19 18 17 15
4 2 1 7 1 10 6 1 2 4 8 6 7 5 5 3 1 5 7 14 16 17 17 15 22 20 23 26 31 34 32 30 30 29 27 25 24 23 21 20 18 17 15 15
11 2 2 2 5 6 9 4 2 4 5 2 4 6 3 3 3 5 4 7 12 14 18 20 23 25 28 28 31 34 30 29 29 28 26 25 24 23 21 19 17 15 14 13
3 4 4 2 3 5 6 1 2 1 4 4 1 4 2 4 3 1 7 15 14 23 25 27 25 26 26 26 32 30 28 27 25 27 26 23 22 21 20 17 16 14 12 11
3 0 8 9 7 6 4 3 2 3 4 3 2 4 1 1 3 7 12 14 24 27 30 33 32 27 25 24 27 27 26 24 26 27 25 22 20 19 17 16 14 13 13 12
2 2 3 2 5 5 4 3 4 2 4 2 4 4 1 8 10 10 11 14 21 27 31 32 31 27 27 27 28 25 25 28 26 23 22 21 20 16 16 16 15 14 15 15
3 4 2 4 3 3 4 3 1 2 3 3 2 3 5 10 10 11 10 13 19 25 28 31 35 28 25 26 25 26 25 26 25 24 23 22 19 18 16 16 17 18 15 13
4 1 3 3 3 4 4 4 3 5 5 5 4 2 5 10 11 13 12 13 18 23 27 31 31 28 25 25 25 28 26 26 26 25 24 21 21 20 18 17 17 16 13 11
4 3 4 6 7 6 4 5 4 4 3 2 3 4 8 12 12 14 13 15 20 24 28 29 28 26 25 26 26 25 25 26 27 26 24 22 21 22 20 16 15 13 9 9
5 6 4 5 4 4 5 4 4 2 1 3 9 8 8 13 13 18 14 21 24 26 28 27 26 27 25 25 22 23 25 25 28 26 24 22 22 19 17 15 15 9 7 6
Wind_Direction
204 190 215 193 202 175 172 196 237 173 171 153 212 253 187 183 207 212 208 206 212 215 196 181 182 186 187 181 181 195 150 186 174 150 140 140 131 125 124 125 125 123 125 123
98 222 201 190 199 197 208 192 221 280 155 180 171 248 188 178 215 212 202 208 208 198 185 185 181 185 188 183 180 186 179 195 184 168 160 152 140 130 121 120 123 123 128 127
195 243 176 179 179 192 217 212 187 208 92 314 360 287 247 208 219 203 214 215 209 203 192 187 185 183 186 183 181 176 178 205 204 177 167 151 136 124 119 116 117 117 125 122
236 223 181 187 211 178 229 176 179 153 149 240 164 266 259 217 222 213 215 210 215 207 196 184 182 178 183 184 174 180 167 176 195 177 165 155 153 135 129 124 119 117 119 117
224 188 178 217 221 176 247 171 196 185 214 181 204 271 238 121 246 235 223 219 215 205 190 180 176 171 168 174 174 175 165 175 189 171 166 161 147 140 139 131 123 118 114 115
233 195 183 226 209 206 152 113 84 103 154 242 226 197 253 204 205 232 226 219 211 195 183 169 162 156 158 167 170 166 167 168 178 164 169 166 154 149 144 135 127 119 114 110
191 231 228 175 223 197 184 181 227 213 211 247 186 189 248 197 207 211 224 204 198 183 171 164 158 155 152 156 156 162 164 151 160 162 162 164 156 157 148 139 131 126 118 110
212 271 210 210 205 191 201 199 218 226 223 242 155 224 243 218 214 217 284 173 166 171 170 167 159 154 154 159 162 158 159 155 154 157 155 157 157 154 142 138 133 125 119 116
244 242 318 222 222 198 207 216 222 264 255 237 201 270 296 206 262 183 169 152 166 164 163 156 150 147 149 152 153 152 149 150 159 155 154 153 154 147 140 136 134 125 122 120
337 275 289 296 285 252 225 155 202 209 233 244 202 241 230 218 219 199 179 172 157 149 144 145 146 143 143 142 143 145 152 151 156 152 153 150 146 140 139 135 130 129 125 125
148 227 270 330 192 228 211 225 219 255 217 247 271 238 265 204 211 203 187 155 149 143 142 142 137 135 135 137 140 146 152 151 150 150 145 144 140 138 134 132 131 129 127 126
247 233 262 243 246 194 173 202 259 256 229 236 245 245 2 338 337 140 141 139 136 139 138 132 131 134 137 139 141 143 144 150 149 146 145 143 137 135 132 130 128 128 125 123
27 265 293 317 347 124 247 90 320 258 250 270 270 250 340 43 32 26 131 142 145 143 140 138 137 141 142 140 138 141 149 152 149 149 146 139 136 134 130 128 127 126 123 119
154 252 239 263 284 227 287 253 239 210 272 314 264 283 309 308 173 125 127 147 148 147 149 146 142 138 135 137 137 142 149 153 151 150 145 139 136 133 129 127 125 122 120 119
184 252 238 252 253 263 268 279 294 264 264 253 273 291 283 267 223 179 150 151 159 161 156 152 145 142 137 135 137 144 151 154 154 147 141 137 134 131 127 124 122 119 118 113
291 263 275 270 258 244 261 254 253 263 271 257 259 267 270 18 107 155 166 165 164 166 165 155 147 143 140 140 141 145 148 148 149 143 138 135 133 130 126 123 121 121 116 110
231 212 220 264 296 325 320 217 236 233 228 231 250 257 336 294 239 186 168 174 166 159 158 157 151 146 144 144 147 145 148 147 147 142 138 137 133 130 127 125 124 119 113 110
208 202 104 272 26 265 253 243 210 238 266 327 309 335 310 276 62 117 172 164 161 158 155 155 150 143 138 143 144 147 146 146 144 140 139 138 136 131 129 127 122 117 114 110
215 200 265 192 223 307 312 287 203 158 280 357 296 320 337 85 68 38 135 149 154 148 141 140 139 137 137 143 145 142 141 142 142 141 142 142 140 135 132 126 123 119 117 112
125 190 177 116 220 229 242 9 109 158 284 248 260 293 264 295 253 101 111 116 119 125 129 127 128 131 134 143 146 137 136 139 139 143 142 140 137 133 130 127 125 122 117 110
330 291 222 234 249 269 228 247 275 120 244 307 291 268 148 193 293 134 125 123 133 136 134 130 131 130 135 142 140 132 134 132 141 138 132 133 135 133 134 130 126 122 116 111
230 239 248 315 222 281 169 130 194 213 304 258 307 299 86 120 118 125 129 130 134 135 135 131 127 133 136 145 139 131 128 137 134 131 132 137 134 129 133 131 125 122 121 114
279 205 254 202 253 202 204 247 286 204 247 279 268 300 156 132 126 124 123 126 131 129 131 131 130 129 134 141 140 129 133 135 134 133 132 138 140 136 136 131 127 124 119 110
279 159 202 19 276 244 245 280 230 209 221 242 242 154 134 130 125 123 122 121 125 129 127 128 127 129 128 132 134 134 138 141 140 138 143 145 140 136 133 129 131 125 114 107
199 116 199 266 272 294 255 231 246 281 262 141 81 110 135 134 129 126 125 124 126 128 126 128 127 125 122 132 135 141 144 148 144 139 135 131 133 134 128 124 128 123 107 105
184 208 179 244 224 163 258 266 260 162 145 140 125 118 128 136 130 127 119 128 128 125 124 121 120 122 126 129 130 141 153 155 143 136 139 139 137 136 138 134 125 117 92 92